Flag for Germany Weather for the Past 2 Weeks in Bietigheim-Bissingen, Baden-Württemberg, Germany

Now
46 °F

Sprinkles. Passing clouds.


Feels Like: 40 °F
Forecast: 41 / 51 °F
Wind: 16 mph from Southwest

Location: Stuttgart-Echterdingen

Current Time: Feb 8, 2016 at 6:23:05 PM

Latest Report: Feb 8, 2016 at 5:50 PM


Visibility: N/A

Pressure: 29.59 "Hg

Humidity: 82%

Dew point: 41 °F

Location of Bietigheim-BissingenLocation

Historic Weather in Bietigheim-Bissingen — Graph

°F

Bietigheim-Bissingen Temperature Yesterday

Maximum temperature yesterday: 46 °F (at 1:20 PM)
Minimum temperature yesterday: 34 °F (at 4:50 AM)
Average temperature yesterday: 40 °F

High & Low Weather Summary for the Past Weeks

 TemperatureHumidityPressure
High61 °F (Jan 26, 2:20 PM)100% (Jan 28, 7:20 PM)30.48 "Hg (Jan 28, 7:20 PM)
Low32 °F (Feb 6, 4:20 AM)44% (Feb 6, 1:20 PM)29.53 "Hg (Feb 8, 1:50 PM)
Average44 °F80%30.14 "Hg
* Reported Jan 24 5:20 PM — Feb 8 5:20 PM, Bietigheim-Bissingen, Weather by CustomWeather, © 2016

Note: Actual official high and low records may vary slightly from our data, if they occured in-between our weather recording intervals... More about our weather records

Advertising

Bietigheim-Bissingen Weather History for the Previous 24 Hours

 ConditionsComfort  
Time TempWeatherWind HumidityBarometerVisibility
5:20 PM
Mon, Feb 8
48 °FSprinkles. Partly sunny.23 mph82%29.59 "HgN/A
4:50 PM48 °FSprinkles. Broken clouds.18 mph82%29.59 "HgN/A
4:20 PM50 °FSprinkles. Broken clouds.15 mph76%29.56 "HgN/A
3:50 PM50 °FScattered clouds.16 mph76%29.56 "HgN/A
3:20 PM48 °FLight rain. Broken clouds.17 mph87%29.56 "HgN/A
2:50 PM50 °FLight rain. Partly sunny.20 mph76%29.53 "HgN/A
2:20 PM52 °FLight rain. Partly sunny.18 mph67%29.53 "HgN/A
1:50 PM54 °FSprinkles. Broken clouds.17 mph63%29.53 "HgN/A
1:20 PM54 °FSprinkles. Scattered clouds.21 mph63%29.56 "HgN/A
12:50 PM54 °FScattered clouds.17 mph58%29.56 "HgN/A
12:20 PM54 °FPartly sunny.17 mph54%29.56 "HgN/A
11:50 AM52 °FPartly sunny.21 mph54%29.56 "HgN/A
11:20 AM52 °FPartly sunny.22 mph54%29.59 "HgN/A
10:50 AM52 °FPartly sunny.20 mph54%29.59 "HgN/A
10:20 AM50 °FBroken clouds.18 mph62%29.62 "HgN/A
9:50 AM48 °FPartly sunny.21 mph66%29.62 "HgN/A
9:20 AM48 °FBroken clouds.15 mph62%29.65 "HgN/A
8:50 AM46 °FBroken clouds.16 mph66%29.68 "HgN/A
8:20 AM45 °FBroken clouds.18 mph66%29.68 "HgN/A
7:50 AM45 °FScattered clouds.14 mph61%29.68 "HgN/A
7:20 AM45 °FLight rain. Partly cloudy.13 mph57%29.68 "HgN/A
6:50 AM43 °FLight rain. Partly cloudy.8 mph66%29.71 "HgN/A
6:20 AM43 °FPartly cloudy.7 mph61%29.71 "HgN/A
5:50 AM41 °FClear.8 mph70%29.74 "Hg10 mi
5:20 AM41 °FClear.3 mph70%29.74 "Hg10 mi
4:20 AM41 °FClear.9 mph70%29.77 "Hg10 mi
3:50 AM41 °FClear.9 mph70%29.77 "Hg10 mi
2:50 AM41 °FClear.7 mph70%29.80 "Hg10 mi
2:20 AM41 °FClear.7 mph70%29.80 "Hg10 mi
1:50 AM41 °FClear.10 mph76%29.80 "Hg10 mi
1:20 AM41 °FClear.9 mph76%29.83 "Hg10 mi
12:50 AM41 °FClear.6 mph76%29.83 "Hg10 mi
12:20 AM41 °FClear.6 mph76%29.83 "Hg10 mi
11:20 PM
Sun, Feb 7
41 °FPassing clouds.5 mph76%29.86 "HgN/A
10:50 PM41 °FClear.8 mph76%29.86 "Hg10 mi
10:20 PM41 °FPassing clouds.7 mph76%29.86 "HgN/A
9:50 PM43 °FClear.12 mph71%29.86 "Hg10 mi
9:20 PM43 °FClear.12 mph76%29.83 "Hg10 mi
8:50 PM43 °FPassing clouds.12 mph76%29.83 "HgN/A
8:20 PM43 °FPassing clouds.13 mph76%29.83 "HgN/A
7:50 PM43 °FPassing clouds.10 mph76%29.83 "HgN/A
7:20 PM43 °FPassing clouds.10 mph76%29.83 "HgN/A
6:50 PM43 °FClear.7 mph81%29.80 "Hg10 mi
6:20 PM43 °FPassing clouds.7 mph81%29.80 "HgN/A
Weather by CustomWeather, © 2016

See weather overviewHow to use our weather pages